Regional Weather Roundup
Issued by NWS

Home | Current Version | Previous Version | Graphics & Text | Print | Product List | Glossary On
Versions: 1 2 3 4 5 6 7 8 9 10 11 12 13 14 15 16 17 18 19 20 21 22 23 24 25 26 27 28 29 30 31 32 33 34 35 36 37 38 39 40 41 42 43 44 45 46 47 48 49 50
000
ASUS45 KTFX 061810
RWRMT
MONTANA REGIONAL WEATHER ROUNDUP
NATIONAL WEATHER SERVICE GREAT FALLS MT
1200 PM MDT MON JUL 06 2015

NOTE: "FAIR" INDICATES FEW OR NO CLOUDS BELOW 12000 FEET WITH NO
SIGNIFICANT WEATHER AND/OR OBSTRUCTIONS TO VISIBILITY.

MTZ001>007-043-061900-
WEST OF THE DIVIDE

CITY           SKY/WX    TMP DP  RH WIND       PRES   REMARKS
KALISPELL      CLEAR     69  41  36 VRB3      30.16F
MISSOULA       SUNNY     70  44  39 CALM      30.15F
BUTTE          MOSUNNY   67  47  48 CALM      30.23F
MULLAN PASS    SUNNY     59  44  57 CALM      30.26R
DEER LODGE       N/A     66  48  52 NE9       30.23F
EUREKA           N/A     73  39  29 SW5       30.15F
HAMILTON         N/A     68  52  56 W8        30.13F
LIBBY            N/A     70  45  40 W3        30.14F
PLAINS           N/A     72  45  37 CALM      30.15S
RONAN            N/A     69  47  45 W6        30.20F
THOMPSON FALLS   N/A     74  43  32 NE12      30.16F
$$

MTZ008-052>055-061900-
SOUTHWEST MONTANA

CITY           SKY/WX    TMP DP  RH WIND       PRES   REMARKS
BOZEMAN        PTSUNNY   64  49  57 CALM      30.23F
DILLON         SUNNY     66  50  56 CALM      30.22F
W YELLOWSTONE  MOSUNNY   59  50  72 CALM      30.31F
THREE FORKS      N/A     65  65 100 CALM      30.20F
$$

MTZ009-010-012-014-046-048-049-054-061900-
EAST SLOPES AND CENTRAL MONTANA

CITY           SKY/WX    TMP DP  RH WIND       PRES   REMARKS
CUT BANK       SUNNY     64  46  52 S10G16    30.20F
GREAT FALLS    MOSUNNY   63  49  60 VRB5      30.20F
MALMSTROM AFB  MOSUNNY   63  51  64 E6G15     30.21F
HELENA         CLOUDY    61  48  62 N5        30.22F
CONRAD           N/A     62  56  81 E3        30.21F
$$

MTZ011-013-016-021-045-047-050-051-061900-
NORTH CENTRAL MONTANA

CITY           SKY/WX    TMP DP  RH WIND       PRES   REMARKS
HAVRE          SUNNY     66  45  46 CALM      30.20F
LEWISTOWN      CLOUDY    62  48  60 N5        30.24F
CHINOOK          N/A     66  45  45 E3        30.21F
FORT BENTON      N/A     66  48  52 E5        30.21F
$$

MTZ017>020-022>027-061-062-061900-
NORTHEAST MONTANA

CITY           SKY/WX    TMP DP  RH WIND       PRES   REMARKS
GLASGOW        MOSUNNY   70  45  40 W8        30.20F
JORDAN           N/A     67  46  47 NW6       30.22F
SIDNEY         SUNNY     70  46  43 N10       30.20S
WOLF POINT     MOSUNNY   72  49  44 N9        30.20F HAZE
MALTA            N/A     69  47  45 CALM      30.16F
PLENTYWOOD       N/A     64  46  52 CALM      30.20F
POPLAR           N/A     66  52  59 NW3       30.21S
SCOBEY           N/A     66  46  48 N7        30.19S
$$

MTZ028>42-056>058-061900-
SOUTHCENTRAL AND SOUTHEAST MONTANA

CITY           SKY/WX    TMP DP  RH WIND       PRES   REMARKS
BAKER          CLOUDY    66  48  52 NW14      30.24S
BILLINGS       PTSUNNY   64  49  57 SE6       30.27F
LIVINGSTON     CLOUDY    63  50  62 E9        30.24F
MILES CITY     PTSUNNY   68  50  52 W6        30.23F
EKALAKA          N/A     64  50  60 NW5       30.21S
FORSYTH          N/A     66  48  52 W8        30.24F
LAUREL           N/A     64  47  54 NE6       30.22F
ROUNDUP          N/A     63  46  53 SE3       30.15F
$$

REGIONAL REPORTS...DAKOTAS

CITY           SKY/WX    TMP DP  RH WIND       PRES   REMARKS
WILLISTON      CLOUDY    66  49  54 N12       30.20S HAZE
MINOT          CLOUDY    61  50  67 NW7       30.18R
DICKINSON      PTSUNNY   67  50  54 N12       30.18S
BEACH          MOCLDY    66  50  55 N13       30.22S
CROSBY         FAIR      63  48  59 N8        30.21S
BISMARCK       PTSUNNY   70  51  51 NW15      30.16S HAZE
GRAND FORKS    CLOUDY    61  49  64 N15       30.10S
FARGO          MOSUNNY   66  49  54 N18G26    30.08R
BUFFALO SD       N/A     67  48  50 NW8       30.16S
RAPID CITY     CLOUDY    66  54  65 N8        30.24S
$$

REGIONAL REPORTS...WYOMING/IDAHO/WASHINGTON

CITY           SKY/WX    TMP DP  RH WIND       PRES   REMARKS
GILLETTE       CLOUDY    60  50  69 CALM      30.29S
SHERIDAN       CLOUDY    57  52  83 N5        30.29S
BUFFALO WY     CLOUDY    54  51  90 CALM      30.31S
CODY           CLOUDY    61  48  63 E7        30.29S
YELLOWSTONE LA   N/A     59  48  67 VRB6      30.38S
IDAHO FALLS    RAIN      63  58  83 S6        30.21R
SALMON         SUNNY     73  52  46 CALM      30.10F
BOISE          SUNNY     85  50  29 VRB7      30.07F
SPOKANE        MOSUNNY   77  45  32 VRB7      30.07F
$$

REGIONAL REPORTS...ALBERTA

CITY           SKY/WX    TMP DP  RH WIND       PRES   REMARKS
EDMONTON       MOSUNNY   68  39  34 S12G18    30.10F
CALGARY        MOSUNNY   66  50  55 S12G18    30.12F
LETHBRIDGE     MOSUNNY   68  45  42 SE10G20   30.16F
MEDICINE HAT   MOSUNNY   68  45  42 W6        30.18F
WATERTON GATE    N/A     66  43  42 SW12        N/A
CARDSTON         N/A     66  46  48 SE8         N/A
MILK RIVER       N/A     66  45  45 S10         N/A
ONEFOUR          N/A     63  41  45 S5          N/A
$$

REGIONAL REPORTS...SASKATCHEWAN

CITY           SKY/WX    TMP DP  RH WIND       PRES   REMARKS
SWIFT CURRENT  MOSUNNY   64  46  52 SE6       30.20F
REGINA         MOSUNNY   66  41  39 NW8       30.20F
SASKATOON      MOSUNNY   66  43  42 SW10      30.20F
CYPRESS HILLS    N/A     59  45  58 SW6         N/A
VAL MARIE        N/A     66  45  45 SE6         N/A
ASSINIBOIA       N/A     68  43  40 S10G17      N/A
$$


USA.gov is the U.S. government's official web portal to all federal, state and local government web resources and services.